Regional Weather Roundup
Issued by NWS

Home | Current Version | Previous Version | Text Only | Print | Product List | Glossary Off
Versions: 1 2 3 4 5 6 7 8 9 10 11 12 13 14 15 16 17 18 19 20 21 22 23 24 25 26 27 28 29 30 31 32 33 34 35 36 37 38 39 40 41 42 43 44 45 46 47 48 49 50

000
ASUS43 KBIS 101259
RWRND

NORTH DAKOTA REGIONAL WEATHER ROUNDUP
NATIONAL WEATHER SERVICE BISMARCK ND
800 AM CDT THU JUL 10 2014

NOTE: "FAIR" INDICATES FEW OR NO CLOUDS BELOW 12,000 FEET WITH NO
SIGNIFICANT WEATHER AND/OR OBSTRUCTIONS TO VISIBILITY.


NDZ001>003-009>011-017-101400-
NORTHWEST NORTH DAKOTA

CITY           SKY/WX    TMP DP  RH WIND       PRES   REMARKS
WILLISTON      CLOUDY    69  54  58 S8        29.79F
MINOT          MOSUNNY   67  58  72 S17G24    29.83S
$$

NDZ018>021-031>035-040>046-101400-
SOUTHWEST NORTH DAKOTA

CITY           SKY/WX    TMP DP  RH WIND       PRES   REMARKS
BISMARCK       SUNNY     62  58  86 SE6       29.89F
DICKINSON      CLOUDY    63  57  81 S12       29.87R
GARRISON         N/A     65  59  81 S10       29.86R
HETTINGER ARPT CLOUDY    60  56  86 SE6       29.88S
$$

NDZ004>008-012>016-024-026-027-054-101400-
NORTHEAST NORTH DAKOTA

CITY           SKY/WX    TMP DP  RH WIND       PRES   REMARKS
GRAND FORKS    SUNNY     61  54  77 S9        29.94S
DEVILS LAKE    SUNNY     64  54  68 S12       29.89S
$$

NDZ022-023-025-028>030-036>039-047>053-101400-
SOUTHEAST NORTH DAKOTA

CITY           SKY/WX    TMP DP  RH WIND       PRES   REMARKS
FARGO          SUNNY     66  53  63 SE9       29.96S
$$



USA.gov is the U.S. government's official web portal to all federal, state and local government web resources and services.